Dewpoint
60 60 61 61 61 61 61 60 60 60 59 59 59 58 59 58 59 60 59 60 61 58 61 61 60 60 59 59 59 57 55 29 15 15 17 29 45 51 56 56 55 55 57 46 36 33 29 27 13 12 10 16 35 32 37 29 25 40 35 31 28 20 18 21 10 12 18 14 21 20 19 18 19 21 21 20 19 19 20 21 18 16 17 17 12 12 14 15
59 59 60 60 61 61 61 60 61 60 60 60 59 59 58 58 59 59 60 58 60 59 62 62 60 60 60 60 61 57 40 22 9 24 22 40 55 54 55 55 54 54 52 35 27 17 10 9 7 7 5 22 32 25 20 28 14 33 25 26 25 20 21 14 8 7 6 12 18 18 17 16 14 20 18 13 14 18 19 18 16 17 16 17 11 12 12 13
59 59 60 60 61 61 61 61 60 61 60 60 60 59 59 59 59 59 60 59 60 61 60 61 61 60 60 58 57 58 33 15 11 11 19 54 54 57 57 55 55 56 43 35 31 25 13 11 9 4 5 13 11 27 22 25 17 26 24 23 24 21 11 8 5 7 9 8 13 16 15 17 14 15 14 14 12 18 16 18 18 17 16 15 12 11 11 12
58 59 59 59 61 61 61 61 60 60 60 60 60 59 59 59 59 59 59 59 61 62 60 61 60 59 59 58 56 54 34 24 12 11 18 52 51 56 56 56 54 51 40 37 36 25 15 14 11 5 15 14 25 11 25 24 29 24 22 25 22 9 9 9 7 7 8 8 6 12 19 16 17 17 13 21 13 14 13 14 19 19 16 16 15 11 12 11
59 58 58 59 59 60 61 60 61 61 59 60 60 60 60 59 59 59 59 59 59 60 59 60 61 60 59 57 56 44 29 22 12 13 22 51 51 52 54 54 53 46 38 34 28 20 17 13 10 16 25 27 31 27 18 13 9 27 21 12 5 7 3 9 7 10 8 7 5 13 16 13 17 20 18 12 11 9 20 24 30 27 16 14 15 12 12 11
59 58 58 59 60 59 60 60 59 59 60 61 61 61 60 58 59 58 59 59 59 58 58 59 60 57 58 56 49 41 31 15 33 13 48 48 51 52 52 52 53 52 43 31 23 14 13 9 5 18 26 18 17 17 13 6 10 25 17 6 6 5 5 13 9 12 13 8 12 22 14 16 20 13 13 14 12 10 18 33 30 31 31 25 24 21 14 13
58 58 59 59 59 59 59 60 60 60 60 61 61 60 59 58 58 59 59 58 59 59 59 58 57 58 57 50 49 32 19 12 14 16 46 50 50 48 49 50 49 52 42 30 17 14 12 8 8 32 17 28 18 10 7 9 15 23 15 5 4 6 7 10 11 16 10 10 9 12 23 12 15 13 17 12 11 17 22 20 30 31 35 32 28 21 17 15
59 58 58 58 58 58 59 59 60 61 60 60 60 60 59 58 57 58 59 59 58 59 58 58 57 57 51 48 40 38 11 9 12 19 43 47 28 26 36 34 29 27 17 17 13 12 10 10 7 30 16 26 35 18 32 15 24 29 25 14 4 11 7 7 9 10 12 12 9 11 8 6 7 6 10 8 9 12 13 17 22 28 31 30 25 24 24 21
59 58 59 58 58 58 58 59 60 59 60 60 60 60 60 59 58 56 59 58 58 58 57 57 56 57 56 39 24 22 6 11 14 16 19 19 16 17 21 17 20 18 25 21 17 14 15 17 11 6 25 30 8 35 33 30 30 29 22 14 3 5 6 7 8 9 10 7 11 9 8 8 7 13 8 8 10 11 11 9 10 13 18 19 20 22 20 21
59 58 58 58 58 58 58 58 58 58 58 59 59 60 61 60 58 57 58 58 58 58 56 58 55 55 47 24 42 19 10 12 15 17 19 19 16 16 16 16 16 17 18 14 17 17 13 9 9 9 13 12 20 33 31 32 29 29 27 26 4 6 6 9 5 8 12 7 9 8 8 8 11 10 9 18 14 13 13 13 12 12 12 15 19 24 22 20
58 59 58 58 58 58 58 58 57 58 58 58 59 61 61 59 58 58 58 59 58 58 55 56 56 48 31 24 18 12 12 13 21 16 18 20 15 14 14 15 15 16 15 13 16 17 19 15 18 12 40 32 21 28 31 34 27 20 17 26 24 7 8 6 4 11 7 9 13 9 7 7 8 17 11 11 15 15 11 12 11 11 13 13 14 14 20 17
58 58 57 58 58 58 58 58 58 58 58 59 60 60 59 58 58 58 58 58 58 57 55 55 55 37 23 17 12 11 14 17 30 16 19 20 17 16 17 15 15 15 15 14 16 18 19 25 22 43 35 32 31 20 30 26 19 23 24 24 21 18 6 6 5 6 14 10 12 9 9 19 13 15 13 13 14 14 12 11 10 11 12 13 15 12 18 17
58 57 57 57 58 58 58 58 58 58 59 60 60 59 58 57 58 58 58 55 56 55 55 55 51 29 36 37 13 12 24 19 33 18 19 21 20 21 14 15 15 15 16 16 18 22 37 31 22 30 39 36 37 31 33 21 21 31 14 23 28 22 22 6 11 12 9 12 16 13 16 14 10 10 12 14 12 12 11 9 7 8 9 12 14 14 16 18
58 57 57 57 58 59 59 58 58 58 59 58 58 57 57 57 56 57 57 55 55 54 55 55 41 34 44 25 10 18 22 22 21 18 19 22 19 13 13 23 18 17 18 15 18 25 29 22 24 31 41 33 35 35 21 13 30 24 32 28 23 22 18 11 12 8 9 14 11 17 13 11 19 13 14 14 11 10 8 8 9 13 11 11 17 14 16 15
57 57 57 58 58 58 58 59 58 58 58 58 58 56 57 56 55 55 57 55 54 56 53 52 45 43 39 31 11 27 48 22 16 17 21 22 19 15 13 16 13 15 16 15 17 22 19 34 30 36 31 37 35 35 33 27 21 24 26 22 24 16 22 12 14 12 14 11 13 23 19 16 10 10 12 13 13 10 9 9 9 10 12 11 14 12 11 12
57 56 57 58 57 57 57 58 57 57 57 57 58 57 55 54 54 54 55 52 51 54 49 49 52 23 36 14 13 39 23 13 13 17 27 22 20 17 17 15 14 15 14 16 17 26 25 14 33 33 27 32 32 28 27 28 24 26 21 15 12 15 20 24 25 16 19 12 14 25 16 15 13 10 11 11 11 10 9 10 11 10 12 10 10 14 12 17
57 57 56 56 56 56 56 56 55 56 57 57 57 56 54 53 53 54 55 55 45 47 31 41 31 41 30 12 20 12 12 15 22 16 19 29 21 19 17 15 13 11 11 14 13 21 18 11 32 34 38 24 22 27 25 20 17 20 21 14 20 10 13 13 20 28 26 25 21 22 19 16 13 13 13 13 16 11 10 10 9 10 11 14 16 12 11 11
57 56 56 56 56 56 56 55 55 56 56 57 54 55 49 52 55 52 50 52 51 53 53 40 37 43 33 12 9 12 15 14 16 17 18 21 25 20 18 15 17 13 12 10 10 9 17 19 21 24 24 26 25 26 19 17 22 18 18 17 16 16 14 14 22 27 21 30 27 18 16 16 14 13 12 12 15 9 9 9 9 9 10 11 11 12 11 13
57 56 56 56 56 56 55 55 54 55 56 55 55 56 56 57 53 42 42 32 48 43 33 39 38 34 38 20 14 15 16 17 17 16 18 20 20 19 18 18 16 13 24 18 22 13 24 30 35 28 25 24 22 28 15 22 25 26 26 18 19 15 12 13 30 28 26 19 21 15 15 13 12 12 12 11 10 10 8 9 13 9 9 9 10 12 13 18
57 57 56 56 56 55 55 54 54 54 55 54 56 58 56 49 45 41 45 35 29 34 33 40 33 36 18 14 15 17 18 15 13 18 19 26 22 17 15 16 24 19 29 28 36 25 34 30 25 21 25 26 23 25 28 27 25 24 24 23 21 20 18 22 26 28 27 22 18 17 15 13 13 12 12 9 9 10 9 9 11 14 13 16 12 18 18 18
57 56 56 56 56 54 54 54 54 54 54 54 52 45 35 36 36 37 37 32 42 39 34 40 39 19 14 17 18 17 11 11 14 17 19 23 23 21 18 16 27 25 28 36 34 41 37 26 27 30 27 22 24 26 27 26 23 26 24 21 16 23 15 27 27 27 27 22 16 16 15 14 13 13 11 9 11 7 8 8 9 9 11 14 17 19 18 18
56 56 56 55 55 54 54 53 52 54 55 53 50 39 45 40 46 50 42 34 40 43 33 24 26 18 18 19 19 20 16 12 12 16 19 24 19 13 31 18 25 28 31 35 33 32 33 28 29 27 25 28 30 28 25 24 27 26 19 16 16 15 23 28 27 25 27 23 18 15 15 15 14 12 11 7 10 15 14 14 16 13 15 16 18 18 18 18
56 56 55 55 54 54 54 53 53 52 54 49 48 44 41 46 41 50 43 32 36 42 41 40 34 17 17 21 21 23 18 13 26 16 19 23 29 24 35 26 29 35 34 31 28 24 22 30 22 22 27 27 28 27 25 28 28 18 17 16 17 22 19 15 26 25 26 19 17 17 16 16 16 18 11 10 10 15 23 22 23 23 17 16 16 17 17 17
56 55 55 54 54 54 54 53 52 55 50 51 46 46 45 47 45 45 45 38 37 40 41 39 26 26 18 16 25 22 16 24 25 16 19 22 25 33 32 29 27 27 30 33 31 27 24 24 18 29 26 28 28 28 26 23 20 24 22 19 16 19 20 19 17 21 24 23 23 18 17 16 18 9 8 11 16 15 23 20 23 21 22 21 20 19 20 19
56 55 55 55 54 55 53 53 47 48 47 55 45 46 47 48 48 51 42 39 34 38 31 45 38 17 18 29 26 29 19 33 24 18 23 21 22 35 37 37 30 28 35 33 30 29 29 21 28 28 26 24 26 23 25 23 14 15 22 24 19 22 20 20 19 18 13 13 22 22 12 13 13 9 10 15 15 14 16 17 17 17 18 19 15 17 19 23
55 55 55 54 54 53 53 48 49 54 50 50 46 47 48 50 51 48 46 29 23 36 40 33 22 25 21 28 20 36 28 33 24 17 31 20 28 32 38 32 30 29 35 33 28 28 29 23 26 29 27 26 25 23 25 22 14 11 18 23 19 16 18 20 20 16 13 11 21 25 10 13 12 10 12 15 14 14 16 17 17 17 16 16 15 14 14 14
55 55 55 54 54 54 47 43 47 54 48 51 48 48 49 50 52 51 39 25 24 31 37 40 33 37 41 27 30 40 29 36 19 26 19 23 33 41 36 30 35 34 34 34 22 21 28 26 23 25 24 26 24 21 27 18 14 12 21 22 19 19 18 21 20 16 12 19 22 21 14 9 10 13 14 15 15 16 16 16 16 15 13 14 13 17 17 19
55 55 54 54 52 53 40 48 50 49 43 49 50 48 49 49 50 49 34 17 12 36 37 37 39 36 27 36 29 34 38 38 34 26 26 36 33 41 30 33 33 34 30 26 12 31 32 26 24 26 23 21 17 20 21 22 14 19 23 24 19 20 21 22 16 13 15 13 14 16 22 9 11 11 13 14 13 14 15 16 17 15 15 15 17 20 20 20
54 55 54 55 52 52 56 52 53 52 48 50 49 47 50 51 49 36 27 20 28 33 43 34 38 30 33 31 33 33 32 34 30 36 32 35 28 38 31 38 35 31 33 35 17 23 33 26 29 28 23 15 22 13 19 22 17 27 26 25 24 24 22 23 15 13 12 10 12 14 17 8 7 12 9 12 13 14 15 16 16 16 17 18 21 20 19 19
51 54 55 54 54 57 52 55 48 50 49 50 50 49 50 48 44 29 21 15 35 28 38 41 37 34 37 32 38 29 33 33 32 36 34 32 24 32 33 38 38 30 28 34 31 31 29 33 34 29 24 23 14 15 23 24 25 25 26 21 22 23 19 17 14 13 13 11 12 18 17 13 8 10 9 12 16 16 16 15 17 19 19 20 20 18 20 20
50 51 52 54 51 52 50 46 50 51 50 51 50 52 50 45 28 18 12 24 34 38 39 37 36 37 32 25 21 34 33 33 33 33 34 34 34 34 35 32 33 26 24 23 24 31 31 29 27 27 30 29 18 23 27 25 24 22 16 15 14 14 10 11 11 11 11 13 11 7 15 17 6 5 13 15 16 18 16 15 16 16 16 19 19 20 21 20
52 50 51 49 52 55 44 51 49 52 51 50 50 51 43 28 24 16 16 39 28 27 31 27 34 30 32 32 28 30 22 30 32 33 25 23 23 25 25 15 25 16 16 17 15 27 25 25 27 30 28 25 25 23 25 25 25 21 16 16 12 12 12 10 9 11 14 14 5 7 17 9 6 6 14 16 15 18 20 22 18 16 16 17 17 19 21 20
51 51 50 49 50 48 49 51 50 51 52 51 49 44 35 20 13 24 20 22 20 30 31 32 32 32 29 30 27 30 31 28 32 33 29 28 27 29 29 30 28 24 11 17 13 16 17 25 26 27 27 29 25 16 14 14 18 18 12 11 11 11 5 3 5 7 9 12 8 9 12 5 7 10 14 13 15 17 18 18 18 16 16 16 18 21 20 21
52 52 50 46 50 49 50 50 51 51 52 53 44 40 27 13 11 28 19 24 26 34 35 32 30 31 30 24 30 27 16 31 26 26 29 25 25 21 22 28 28 26 19 11 8 8 12 10 22 25 22 24 23 14 14 14 12 8 18 10 13 10 4 4 6 7 9 12 7 13 7 11 7 15 14 13 16 17 17 17 18 17 18 19 18 18 19 20
53 55 52 52 53 52 53 51 53 51 51 48 40 27 17 15 16 17 18 20 26 31 30 32 29 28 27 24 27 27 24 18 26 24 29 23 14 19 20 18 27 25 23 18 15 13 18 16 24 25 23 20 23 24 22 21 16 16 13 17 12 13 13 13 11 11 9 10 10 8 11 11 12 16 16 16 15 16 16 15 17 16 16 18 18 20 20 20
53 54 56 51 50 53 53 54 50 51 50 44 34 20 19 17 14 21 27 31 31 26 23 31 27 23 21 22 24 20 33 17 22 21 21 18 24 20 23 24 20 24 18 17 16 15 15 8 23 25 25 10 11 22 23 22 15 11 10 13 13 12 9 12 12 12 12 11 10 13 11 11 13 14 14 15 15 15 15 15 15 15 15 16 18 19 19 21
52 54 52 52 52 52 52 53 51 48 47 43 30 21 21 28 30 31 34 30 30 29 27 15 19 16 13 15 17 14 20 25 23 16 5 22 18 25 24 24 27 26 17 12 18 16 12 11 25 25 22 19 20 17 25 23 22 13 11 8 20 17 15 12 9 10 9 8 7 7 10 10 11 12 13 13 13 14 14 13 13 15 15 16 18 18 18 17
47 48 45 51 50 52 53 54 51 50 46 40 26 24 30 25 33 34 33 32 31 28 21 20 18 24 17 10 11 14 21 16 21 21 18 18 14 24 24 23 24 17 17 24 19 17 17 13 17 17 21 24 24 23 22 22 23 16 12 21 14 11 10 9 9 6 7 6 8 8 12 12 15 14 13 11 11 11 12 13 14 14 14 15 16 17 16 15
50 46 43 47 52 52 51 50 51 47 43 28 25 23 33 33 30 34 34 33 33 31 21 23 18 23 18 16 19 18 15 14 16 17 17 16 11 28 22 24 24 23 19 26 20 16 20 13 15 19 15 17 13 18 15 13 20 23 19 14 19 10 12 9 12 11 10 9 6 5 10 11 12 13 10 10 10 12 13 14 14 14 14 14 15 16 15 15
45 44 47 49 53 53 51 52 50 46 36 25 28 26 30 31 34 33 32 35 29 28 20 20 24 20 19 20 19 18 21 20 14 14 17 19 16 28 24 21 22 23 26 24 19 22 18 12 13 14 21 17 11 9 9 12 14 11 12 12 15 13 13 12 12 9 8 7 8 8 8 11 9 11 10 11 12 14 14 14 14 14 14 14 14 14 14 15
45 39 42 50 52 53 55 53 43 29 29 22 31 30 33 36 33 35 37 36 34 34 25 28 26 21 25 21 19 21 19 13 17 16 16 17 13 18 26 24 28 22 23 22 17 17 16 12 14 10 10 8 12 16 15 12 10 9 11 13 14 13 13 10 10 15 12 12 9 9 8 10 12 11 13 12 13 14 15 15 15 14 13 14 13 14 13 14
42 31 43 49 52 55 52 37 25 22 25 25 31 35 37 38 34 33 33 33 34 26 29 27 29 27 25 24 25 21 21 18 17 18 18 15 25 24 30 31 30 27 14 18 15 20 17 11 7 12 10 12 9 10 16 19 19 18 13 12 13 14 13 10 8 10 11 11 10 11 9 10 12 10 13 13 14 15 16 15 14 13 13 13 13 14 13 12
43 39 46 47 52 55 45 36 24 31 27 32 34 34 35 35 30 32 32 33 31 33 29 29 32 28 28 25 26 22 21 19 20 14 21 19 26 26 32 31 30 30 23 18 16 15 21 13 13 14 15 17 12 16 11 16 17 16 14 10 11 11 18 14 14 13 10 9 8 9 9 11 10 11 13 16 17 17 16 15 13 12 12 12 12 12 11 10
40 41 45 54 54 53 43 27 27 27 28 33 34 34 36 35 33 31 30 30 30 25 28 26 30 28 28 28 21 21 25 17 25 19 18 20 20 32 31 31 29 18 21 21 21 23 15 13 11 13 12 14 7 8 11 14 17 8 11 12 18 19 17 14 11 12 9 10 10 8 7 11 12 13 12 16 16 16 15 12 11 10 11 11 12 12 11 10
39 41 40 43 45 42 40 37 34 28 26 30 27 29 32 33 35 33 32 31 29 25 26 25 28 28 27 27 26 25 26 22 19 23 14 16 22 30 31 31 28 19 30 29 29 26 19 17 12 11 9 7 8 10 14 15 14 12 13 16 16 17 13 10 10 13 10 10 9 9 9 10 11 14 13 17 16 16 15 12 10 10 10 11 12 11 10 10
34 23 40 39 40 41 35 34 34 31 27 25 24 29 27 27 33 33 34 30 29 29 21 28 28 24 25 27 27 27 26 24 20 18 15 16 21 30 29 31 30 28 27 30 28 23 18 16 12 12 13 13 14 17 18 19 14 12 14 15 14 16 16 14 13 12 10 11 12 13 13 12 12 11 13 16 15 14 11 10 9 9 10 11 11 11 11 12
36 27 26 27 37 35 28 33 34 31 28 28 22 25 21 23 28 30 36 30 29 30 29 28 29 27 26 27 25 23 23 24 25 21 14 15 15 25 30 31 30 31 28 27 27 18 15 16 18 20 18 17 17 15 16 18 12 12 13 16 19 16 14 11 12 11 14 12 9 12 13 12 11 11 15 15 14 13 11 9 9 10 12 12 11 11 18 17
35 34 35 30 33 27 29 30 35 33 31 32 23 27 24 25 26 21 31 29 29 27 28 29 27 28 28 28 26 21 22 23 25 18 18 12 18 22 25 29 26 28 27 20 18 16 16 16 20 13 13 14 15 13 12 14 13 13 12 11 11 17 15 10 12 15 13 11 11 12 12 11 11 13 15 14 13 11 10 10 11 12 12 12 11 12 16 16
37 32 32 34 34 29 30 34 34 37 34 30 24 28 24 25 24 27 29 28 28 27 28 21 28 27 27 25 25 20 24 18 18 23 19 16 20 17 19 24 25 27 23 14 13 17 15 17 19 16 14 13 14 14 16 16 15 11 11 15 15 18 16 15 15 15 13 12 12 12 12 12 12 14 14 14 13 11 10 10 11 12 12 11 13 16 15 15
37 36 27 34 34 24 25 27 31 33 32 28 23 31 28 27 26 27 26 27 23 28 27 26 30 27 27 27 25 21 25 27 23 20 16 18 19 18 18 16 19 18 17 16 16 15 16 14 16 14 13 14 17 15 11 15 10 9 13 16 15 14 12 14 15 13 14 12 12 12 11 12 15 15 14 13 11 10 9 10 11 12 11 14 16 14 14 15
40 36 45 37 32 26 23 27 30 30 25 28 24 30 29 28 29 30 30 32 28 29 28 31 30 28 28 26 27 26 29 28 28 27 27 24 20 21 17 18 19 18 18 18 16 17 12 15 15 15 14 14 14 15 16 15 14 11 10 14 13 11 10 12 10 12 10 11 12 11 12 13 15 14 13 11 10 9 9 11 12 11 12 15 14 13 14 12
39 38 41 40 30 24 25 26 28 28 26 27 29 32 31 33 29 31 26 32 31 33 32 30 31 27 26 27 27 30 28 27 25 25 22 23 20 20 19 21 21 20 20 20 20 20 16 16 16 16 14 12 13 16 15 14 11 9 11 11 15 14 12 11 13 13 13 12 11 11 13 14 14 14 10 9 9 9 11 12 11 11 14 14 13 13 12 10